Weather Roundup
Issued by NWS Springfield, MO

Home | Current Version | Previous Version | Text Only | Print | Product List | Glossary On
Versions: 1 2 3 4 5 6 7 8 9 10 11 12 13 14 15 16 17 18 19 20 21 22 23 24 25 26 27 28 29 30 31 32 33 34 35 36 37 38 39 40 41 42 43 44 45 46 47 48 49 50
000
NZUS99 KSGF 040557
HRRSGF

HOURLY WEATHER
NATIONAL WEATHER SERVICE SPRINGFIELD MO
1200 AM CST SUN DEC 04 2016

......SGF CWA......

CITY           SKY/WX    TMP DP  RH WIND       PRES   REMARKS
SPRINGFIELD    CLOUDY    39  36  89 SE10      30.08F WCI  32
6HR MIN TEMP:  39; 6HR MAX TEMP:  41; 6HR PCP:  0.02;

JOPLIN         LGT RAIN  40  40 100 E5        30.09F FOG
6HR MIN TEMP:  40; 6HR MAX TEMP:  43; 6HR PCP:  0.05;

WEST PLAINS    CLOUDY    37  35  92 E7        30.13F FOG     WCI  32
6HR MIN TEMP:  37; 6HR MAX TEMP:  38; 6HR PCP:  0.04;

ROLLA          MIX PCPN  37  35  92 SE6       30.13F WCI  32
6HR MIN TEMP:  37; 6HR MAX TEMP:  41; 6HR PCP:  0.01;


......SURROUNDING SGF CWA......

CITY           SKY/WX    TMP DP  RH WIND       PRES   REMARKS
CHANUTE        LGT RAIN  41  39  93 E10       30.08S FOG
PARSONS        LGT RAIN  41  40  96 VRB5      30.09S FOG
COFFEYVILLE    LGT RAIN  42  41  96 E7        30.08F FOG
EMPORIA        LGT RAIN  40  40 100 N3        30.07F FOG
HARRISON AR    LGT RAIN  37  37 100 E13       30.09F FOG     WCI  29

......KANSAS AND MISSOURI......

CITY           SKY/WX    TMP DP  RH WIND       PRES   REMARKS
KANSAS CTY INT LGT RAIN  41  37  86 S6        30.10S
SEDALIA        CLOUDY    42  34  73 SE10      30.13F
ST JOSEPH      LGT RAIN  39  38  96 CALM      30.11F
ST LOUIS       CLOUDY    41  31  67 E10       30.20F
WICHITA        LGT RAIN  42  41  96 N5        30.06F FOG
TOPEKA         RAIN      40  38  93 CALM      30.10S FOG
OLATHE         LGT RAIN  39  38  96 S5        30.10S FOG

......TENNESSEE......

CITY           SKY/WX    TMP DP  RH WIND       PRES   REMARKS
MEMPHIS        NOT AVBL
NASHVILLE      LGT RAIN  40  37  89 E6        30.20F

......ARKANSAS.......

CITY           SKY/WX    TMP DP  RH WIND       PRES   REMARKS
FAYETTEVILLE   CLOUDY    43  43 100 E5        30.05F FOG
FT SMITH       CLOUDY    44  42  93 E12       30.06F
LITTLE ROCK    DRIZZLE   42  42 100 NE10      30.07F FOG

......OKLAHOMA.......

CITY           SKY/WX    TMP DP  RH WIND       PRES   REMARKS
TULSA          DRIZZLE   44  44 100 E5        30.05F FOG
PONCA CITY     CLOUDY    44  41  89 SE7       30.05S FOG
MCALESTER      CLOUDY    46  43  89 NE3       30.02F FOG
OKLAHOMA CITY  CLOUDY    44  43  96 E6        30.01F FOG

......IOWA............

CITY           SKY/WX    TMP DP  RH WIND       PRES   REMARKS
DES MOINES     NOT AVBL
QUAD CITIES    CLOUDY    35  27  72 SE9       30.22F WCI  28

......ILLINOIS........

CITY           SKY/WX    TMP DP  RH WIND       PRES   REMARKS
QUINCY         NOT AVBL
CHICAGO        CLOUDY    31  24  75 SW5       30.27S WCI  26



USA.gov is the U.S. government's official web portal to all federal, state and local government web resources and services.